Atqasuk Edward Burnell Sr Memorial Airport
PATQ : now visible

Airfield :











YOU CAN JOIN US ON...

 
LOGIN :

Register | Disclaimer

   EN    FR    IT 

 









Legend :    VFR   Marginal VFR   IFR   Intensive IFR   Very Intensive IFR
Visi :
Ceiling :
>= 8 km
>= 3000ft
5 to 8 km
1000 to 3000 ft
1500m to 5 km
500 to 1000 ft
800 to 1500m
200 to 500 ft
< 800m
< 200 ft
Symbols :   Thunderstorms  Fog  Heavy snow  Heavy precipitations  Wind > 20 kt






- Airport Elevation : 96 ft
- IATA code : ATK


PATQ - Atqasuk Edward Burnell Sr Memorial

CURRENT METAR :
  • 242056Z AUTO 09022KT 1 3/4SM BR CLR M22/M24 A3019 RMK AO2 PK WND 09028/2009 SNE31 SLP228 6//// T12171239 53013 FZRANO TSNO PNO $

EXPIRED METARs :
  • 242048Z AUTO 09023KT 1 3/4SM BR CLR M22/M24 A3018 RMK AO2 PK WND 09028/2009 SNE31 FZRANO TSNO PNO $
  • 242009Z AUTO 09025KT 1 3/4SM -SN BR CLR M22/M24 A3017 RMK AO2 PK WND 09028/2009 FZRANO TSNO PNO $

TAF N/A
PAZA FIR / North America



MET'MAP, your aeronautical weather chart ! - Copyright ORBIFLY December 2007 - Disclaimer

ORBIFLY MET'MAP TEAM :

Programming & Development : Alexandra Zaïnal
Concept & original design : Baudouin d'Aumeries
Assistance for programming : Marc-Olivier Méhu
Technical & hardware support : Manuel Goepfert

Contact : metmap@orbifly.com




SOURCES & CREDITS :

   NOAA       Earth
Advisory